| time (UTC) | temp F | wind direction | speed knots | gust knots | rain 1hr in | rain 24hr in | rain mn in | humidity % | barometer mb |
| 20260505160528 | 56 | 275 | 0.0 | 0.0 | 0.00 | 0.19 | 0.18 | 88 | 1013.3 |
| 20260505152019 | 54 | 275 | 0.0 | 0.0 | 0.02 | 0.19 | 0.18 | 89 | 1013.2 |
| 20260505150540 | 54 | 275 | 0.0 | 0.0 | 0.06 | 0.19 | 0.18 | 89 | 1013.0 |
| 20260505140549 | 54 | 310 | 0.0 | 0.0 | 0.00 | 0.13 | 0.12 | 89 | 1012.5 |
| 20260505125020 | 55 | 252 | 3.5 | 8.7 | 0.01 | 0.13 | 0.12 | 89 | 1011.9 |
| 20260505123534 | 55 | 247 | 0.0 | 0.0 | 0.01 | 0.13 | 0.12 | 89 | 1011.9 |
| 20260505122052 | 55 | 247 | 1.7 | 4.3 | 0.01 | 0.13 | 0.12 | 89 | 1011.9 |
| 20260505120532 | 55 | 245 | 0.0 | 0.0 | 0.01 | 0.13 | 0.12 | 89 | 1011.7 |
| 20260505115027 | 55 | 245 | 0.0 | 0.0 | 0.00 | 0.12 | 0.11 | 89 | 1011.7 |
| 20260505113528 | 55 | 245 | 0.0 | 0.0 | 0.00 | 0.12 | 0.11 | 89 | 1011.6 |
| 20260505112021 | 55 | 245 | 0.0 | 0.0 | 0.00 | 0.12 | 0.11 | 89 | 1011.7 |
| 20260505110521 | 55 | 245 | 0.0 | 6.1 | 0.00 | 0.12 | 0.11 | 89 | 1011.7 |
| 20260505102027 | 55 | 234 | 0.0 | 0.0 | 0.01 | 0.12 | 0.11 | 88 | 1011.8 |
| 20260505100525 | 55 | 234 | 0.0 | 0.0 | 0.01 | 0.12 | 0.11 | 88 | 1011.9 |
| 20260505095047 | 55 | 234 | 0.0 | 0.0 | 0.01 | 0.12 | 0.11 | 88 | 1011.9 |
| 20260505093523 | 55 | 234 | 0.0 | 0.0 | 0.01 | 0.12 | 0.11 | 88 | 1012.0 |
| 20260505092035 | 55 | 233 | 0.0 | 0.0 | 0.01 | 0.11 | 0.10 | 87 | 1012.2 |
| 20260505090531 | 55 | 234 | 0.0 | 0.0 | 0.02 | 0.11 | 0.10 | 87 | 1012.2 |
| 20260505085043 | 55 | 233 | 0.0 | 0.0 | 0.06 | 0.11 | 0.10 | 87 | 1012.4 |
| 20260505083516 | 55 | 231 | 0.9 | 5.2 | 0.08 | 0.11 | 0.10 | 86 | 1012.6 |
| 20260505082031 | 55 | 174 | 0.0 | 2.6 | 0.07 | 0.10 | 0.09 | 86 | 1012.7 |
| 20260505080528 | 55 | 175 | 0.0 | 0.0 | 0.07 | 0.09 | 0.08 | 85 | 1012.8 |
| 20260505075023 | 56 | 175 | 0.0 | 3.5 | 0.05 | 0.05 | 0.04 | 84 | 1012.9 |
| 20260505073517 | 56 | 194 | 0.0 | 0.0 | 0.03 | 0.03 | 0.02 | 83 | 1012.9 |
| 20260505072026 | 56 | 194 | 0.0 | 0.0 | 0.03 | 0.03 | 0.02 | 82 | 1013.0 |
| 20260505070521 | 57 | 194 | 0.0 | 0.9 | 0.02 | 0.02 | 0.01 | 81 | 1013.1 |
| 20260505065054 | 58 | 194 | 0.0 | 0.0 | 0.00 | 0.00 | 0.00 | 78 | 1013.2 |
| 20260505063530 | 59 | 194 | 0.0 | 0.0 | 0.00 | 0.00 | 0.00 | 76 | 1013.2 |
| 20260505062046 | 59 | 224 | 0.0 | 0.0 | 0.00 | 0.00 | 0.00 | 75 | 1013.2 |
| 20260505060522 | 59 | 224 | 0.0 | 0.0 | 0.00 | 0.00 | 0.00 | 75 | 1013.4 |
| 20260505055041 | 59 | 224 | 0.0 | 0.0 | 0.00 | 0.00 | 0.00 | 74 | 1013.4 |
| 20260505053517 | 59 | 225 | 0.0 | 0.0 | 0.00 | 0.00 | 0.00 | 74 | 1013.6 |
| 20260505052016 | 59 | 225 | 0.0 | 0.0 | 0.00 | 0.00 | 0.00 | 74 | 1013.6 |
| 20260505050525 | 59 | 225 | 0.0 | 0.0 | 0.00 | 0.00 | 0.00 | 74 | 1013.8 |
| 20260505040541 | 60 | 257 | 0.0 | 0.9 | 0.00 | 0.00 | 0.00 | 72 | 1013.8 |
| 20260505035015 | 60 | 261 | 0.0 | 0.9 | 0.00 | 0.00 | 0.00 | 73 | 1013.7 |
| 20260505033537 | 60 | 261 | 0.0 | 2.6 | 0.00 | 0.00 | 0.00 | 73 | 1013.6 |
| 20260505032024 | 59 | 257 | 0.9 | 7.0 | 0.00 | 0.00 | 0.00 | 72 | 1013.5 |
| 20260505030521 | 60 | 281 | 0.0 | 2.6 | 0.00 | 0.00 | 0.00 | 73 | 1013.4 |
| 20260505025027 | 60 | 278 | 0.0 | 7.0 | 0.00 | 0.00 | 0.00 | 72 | 1013.3 |
| 20260505023523 | 61 | 272 | 0.0 | 7.8 | 0.00 | 0.00 | 0.00 | 71 | 1013.1 |
| 20260505022022 | 61 | 272 | 0.0 | 10.4 | 0.00 | 0.00 | 0.00 | 69 | 1013.1 |
| 20260505020523 | 62 | 287 | 1.7 | 12.2 | 0.00 | 0.00 | 0.00 | 68 | 1013.2 |
| 20260505015032 | 62 | 272 | 5.2 | 12.2 | 0.00 | 0.00 | 0.00 | 68 | 1013.1 |
| 20260505013533 | 63 | 261 | 4.3 | 12.2 | 0.00 | 0.00 | 0.00 | 67 | 1012.9 |
| 20260505012014 | 63 | 249 | 5.2 | 10.4 | 0.00 | 0.00 | 0.00 | 66 | 1013.4 |
| 20260505010531 | 64 | 273 | 5.2 | 11.3 | 0.00 | 0.00 | 0.00 | 62 | 1013.2 |
| 20260505005053 | 65 | 256 | 1.7 | 10.4 | 0.00 | 0.00 | 0.00 | 62 | 1013.4 |
| 20260505003519 | 65 | 288 | 5.2 | 10.4 | 0.00 | 0.00 | 0.00 | 60 | 1013.3 |
| 20260505002029 | 65 | 263 | 2.6 | 10.4 | 0.00 | 0.00 | 0.00 | 62 | 1013.3 |
| 20260505000530 | 65 | 271 | 5.2 | 12.2 | 0.00 | 0.00 | 0.00 | 59 | 1013.5 |
| 20260504235052 | 65 | 244 | 2.6 | 13.9 | 0.00 | 0.00 | 0.00 | 60 | 1013.4 |
| 20260504233555 | 65 | 309 | 2.6 | 8.7 | 0.00 | 0.00 | 0.00 | 59 | 1013.5 |
| 20260504232029 | 66 | 249 | 1.7 | 7.0 | 0.00 | 0.00 | 0.00 | 60 | 1013.4 |
| 20260504230529 | 66 | 279 | 0.9 | 13.9 | 0.00 | 0.00 | 0.00 | 61 | 1013.4 |
| 20260504225025 | 66 | 251 | 5.2 | 12.2 | 0.00 | 0.00 | 0.00 | 60 | 1013.3 |
| 20260504223522 | 66 | 245 | 1.7 | 12.2 | 0.00 | 0.00 | 0.00 | 61 | 1013.3 |
| 20260504222023 | 65 | 304 | 3.5 | 11.3 | 0.00 | 0.00 | 0.00 | 63 | 1013.7 |
| 20260504220538 | 66 | 272 | 4.3 | 9.6 | 0.00 | 0.00 | 0.00 | 62 | 1013.8 |
| 20260504215014 | 66 | 275 | 2.6 | 12.2 | 0.00 | 0.00 | 0.00 | 61 | 1013.9 |
| 20260504213529 | 66 | 284 | 6.1 | 16.5 | 0.00 | 0.00 | 0.00 | 60 | 1013.9 |
| 20260504212026 | 66 | 295 | 3.5 | 11.3 | 0.00 | 0.00 | 0.00 | 61 | 1014.1 |
| 20260504210543 | 67 | 268 | 2.6 | 13.9 | 0.00 | 0.00 | 0.00 | 60 | 1014.0 |
| 20260504205020 | 66 | 259 | 2.6 | 10.4 | 0.00 | 0.00 | 0.00 | 59 | 1014.0 |
| 20260504203543 | 66 | 291 | 2.6 | 11.3 | 0.00 | 0.00 | 0.00 | 60 | 1014.1 |
| 20260504202019 | 67 | 265 | 3.5 | 10.4 | 0.00 | 0.00 | 0.00 | 59 | 1014.1 |
| 20260504200520 | 66 | 261 | 3.5 | 12.2 | 0.00 | 0.00 | 0.00 | 59 | 1014.1 |
| 20260504195033 | 66 | 270 | 4.3 | 11.3 | 0.00 | 0.00 | 0.00 | 61 | 1014.4 |
| 20260504193545 | 65 | 291 | 1.7 | 11.3 | 0.00 | 0.00 | 0.00 | 62 | 1014.3 |
| 20260504192018 | 65 | 264 | 0.9 | 10.4 | 0.00 | 0.00 | 0.00 | 60 | 1014.5 |
| 20260504190534 | 65 | 265 | 3.5 | 12.2 | 0.00 | 0.00 | 0.00 | 60 | 1014.3 |
| 20260504185029 | 64 | 225 | 1.7 | 8.7 | 0.00 | 0.00 | 0.00 | 60 | 1014.5 |
| 20260504183534 | 65 | 284 | 1.7 | 11.3 | 0.00 | 0.00 | 0.00 | 59 | 1014.7 |
| 20260504182023 | 65 | 257 | 4.3 | 8.7 | 0.00 | 0.00 | 0.00 | 60 | 1014.7 |
| 20260504180517 | 64 | 264 | 4.3 | 8.7 | 0.00 | 0.00 | 0.00 | 60 | 1014.6 |
| 20260504175050 | 64 | 267 | 1.7 | 10.4 | 0.00 | 0.00 | 0.00 | 62 | 1014.5 |
| 20260504173525 | 64 | 258 | 2.6 | 9.6 | 0.00 | 0.00 | 0.00 | 63 | 1014.5 |
| 20260504172018 | 64 | 300 | 3.5 | 8.7 | 0.00 | 0.00 | 0.00 | 62 | 1014.5 |
| 20260504170526 | 62 | 265 | 2.6 | 10.4 | 0.00 | 0.00 | 0.00 | 68 | 1014.3 |